Location: Newark
(26.8229°N, 81.7649°W)
Time: 15:13:17
(UTC+00:00)

BEESAT - Visible Passes

Search period start: 04 April 2020 00:00
Search period end: 14 April 2020 00:00
Orbit: 700 x 709 km, 98.6° (Epoch: 04 April)

Date Brightness Start Highest point End Pass type
(mag) Time Alt. Az. Time Alt. Az. Time Alt. Az.
04 Apr ? 10:02:37 10° SE 10:06:46 31° ENE 10:10:54 10° NNE visible
05 Apr ? 10:45:16 10° S 10:49:59 81° WSW 10:54:45 10° NNW visible
06 Apr ? 00:32:38 10° NW 00:34:39 13° WNW 00:36:40 10° W visible
06 Apr ? 09:52:12 10° ESE 09:55:54 23° ENE 09:59:37 10° NNE visible
07 Apr ? 10:34:22 10° SSE 10:39:04 75° ENE 10:43:48 10° N visible
08 Apr ? 00:20:47 10° NNW 00:23:50 17° WNW 00:26:53 10° WSW visible
08 Apr ? 09:41:58 10° ESE 09:45:03 17° ENE 09:48:08 10° NNE visible
09 Apr ? 10:23:33 10° SSE 10:28:09 54° ENE 10:32:47 10° N visible
10 Apr ? 00:09:17 10° NNW 00:12:59 23° WNW 00:16:41 10° WSW visible
10 Apr ? 09:32:06 10° E 09:34:13 13° ENE 09:36:20 10° NE visible
11 Apr ? 10:12:52 10° SE 10:17:16 39° ENE 10:21:41 10° N visible
13 Apr ? 10:02:18 10° SE 10:06:23 29° ENE 10:10:28 10° NNE visible
